カタログに戻る

FENGYUN 2A AKM

運用中MEO
NORAD 25611·ROCKET BODY·🇨🇳 China

打ち上げ Jun 10, 1997 から Xichang Satellite Launch Center

Loading…

次のパス (今後24時間)

TLE

最新Source: Space-Track

元期: Sep 14, 2026, 05:43 UTC

1 25611U 97029C   26257.23828380 -.00000261  00000-0  00000-0 0  9998
2 25611  13.8363 352.5643 0223504  82.8971 297.5798  1.02878357 49506

AllMySatでFENGYUN 2A AKMをリアルタイム追跡

Download on the App Store